Theta_e
330 334 337 339 341 343 344 344 345 346 347 347 346 345 346 347 347 346 345 347 347 345 345 344 343 343 343 344 344 346 346 347 350 351 352 353 356 356 357 357 358 360 360 357 356 359 363 358 356 359 361 361 359 355 354 357 364 359 359 358 359 356 355 356 353 343 341 344 339 338 341 342 348 361 350 348 348 348 347 347 349 350 351 351 354
331 333 336 338 340 342 343 343 346 343 345 345 345 345 346 346 346 346 346 347 346 346 346 345 344 344 343 344 344 345 347 348 347 349 351 354 357 358 359 359 360 359 362 359 359 357 360 358 357 358 361 357 361 359 363 365 358 359 358 357 356 357 354 356 354 341 339 336 338 336 339 338 346 349 346 345 345 344 344 346 347 344 344 346 350
330 333 335 338 340 342 342 343 344 345 345 345 345 345 346 346 346 347 346 346 346 347 346 345 346 348 346 345 345 344 346 350 348 352 355 353 355 357 360 360 361 361 363 363 361 360 359 357 357 358 359 364 357 356 355 355 357 357 358 357 355 351 355 358 356 348 343 340 339 339 332 333 344 341 344 344 345 345 343 342 344 343 343 346 350
328 331 334 337 339 341 341 342 343 344 345 344 344 344 345 347 346 346 346 347 347 349 350 347 348 348 349 347 347 347 345 351 350 353 353 353 353 356 359 359 360 361 362 362 367 360 357 358 359 359 359 361 356 359 358 355 356 359 359 359 355 352 352 352 360 349 347 344 338 335 330 334 333 337 337 342 344 346 343 341 341 342 343 348 351
329 331 334 337 338 339 340 342 343 342 343 344 344 344 346 346 346 347 347 348 347 352 350 348 351 348 350 350 350 349 348 347 347 348 351 353 354 354 356 359 360 361 361 361 366 361 359 359 361 361 360 358 361 359 357 355 357 358 359 358 356 354 351 349 352 356 351 345 340 338 336 332 331 334 331 340 339 344 343 343 344 344 344 347 348
330 331 334 336 338 339 340 341 341 342 343 344 345 345 346 346 347 348 348 348 347 349 349 349 350 346 345 344 342 342 341 342 342 344 347 349 352 354 357 359 360 361 360 360 361 365 361 361 361 361 361 361 361 357 356 357 356 356 359 358 358 359 355 349 348 355 354 357 347 341 345 341 336 336 333 338 343 347 344 345 342 342 344 342 347
331 333 334 335 337 338 339 340 341 341 343 345 345 346 347 347 348 348 348 348 348 350 350 351 347 346 345 344 343 342 341 342 345 347 348 351 354 354 356 358 359 360 361 360 360 365 363 360 361 360 361 360 367 358 358 356 355 355 363 361 359 362 352 350 349 348 352 354 352 350 353 351 338 340 340 337 336 343 342 342 342 341 341 342 344
330 331 333 336 337 337 337 340 341 342 344 344 344 346 346 347 348 348 349 350 348 351 350 351 347 346 345 344 345 343 343 343 345 347 351 355 353 354 356 357 358 359 359 359 360 363 364 359 361 361 360 357 364 362 358 356 358 357 364 359 359 361 356 353 351 350 348 348 354 348 349 351 349 343 342 339 335 333 336 340 343 340 341 344 348
331 331 333 335 336 337 339 339 341 343 343 343 344 345 346 348 348 348 348 349 348 352 351 350 350 347 346 345 346 346 345 345 350 353 352 356 352 354 355 356 357 358 358 358 359 361 367 363 360 361 360 358 367 366 361 360 357 359 361 360 358 358 360 358 351 352 350 349 347 348 346 346 347 348 347 347 343 334 335 335 340 341 343 343 345
332 333 334 335 336 337 339 341 341 343 344 345 345 346 346 347 348 348 348 349 349 352 352 350 351 350 346 345 345 345 349 348 350 350 350 354 352 353 354 354 355 356 357 358 358 359 362 365 360 359 360 359 366 365 359 358 357 360 362 361 362 358 358 358 357 354 354 353 348 348 346 347 346 346 342 343 340 340 338 336 337 338 340 348 345
331 332 334 335 337 338 339 339 341 343 344 344 345 346 346 347 347 347 348 349 351 352 351 349 350 348 347 346 346 345 346 346 347 348 349 351 351 352 353 354 354 355 356 359 358 359 360 364 361 358 359 365 368 361 358 356 357 358 359 360 361 361 359 358 358 357 356 355 350 350 346 344 344 341 344 342 338 339 339 338 339 342 339 339 350
331 332 333 335 336 337 339 339 340 342 343 344 345 346 346 347 347 347 348 349 350 352 352 350 350 349 348 347 347 347 347 346 346 347 348 350 350 351 352 352 352 354 355 356 357 358 360 361 365 362 364 361 361 360 358 358 360 360 358 357 358 359 361 360 356 356 354 355 354 351 350 347 347 346 344 346 344 344 340 339 340 343 344 342 342
331 332 333 334 335 336 337 338 340 341 342 344 345 346 346 347 347 346 347 349 350 352 352 350 350 350 348 347 348 348 348 348 347 347 349 349 350 350 350 351 351 351 354 355 356 357 359 359 359 359 359 362 362 360 359 359 362 360 359 360 360 359 360 359 359 358 355 355 355 354 350 347 346 346 345 347 347 342 344 342 342 339 343 344 350
330 332 333 334 335 336 337 338 339 341 342 344 346 346 346 346 347 347 347 349 351 352 352 351 350 351 350 349 348 351 349 348 348 347 349 350 351 350 351 351 351 352 353 354 356 357 359 359 361 359 359 359 361 361 359 360 361 357 359 358 359 359 359 361 361 360 358 358 356 356 356 350 349 349 348 347 346 346 346 342 345 345 342 343 347
330 332 334 335 336 337 337 339 340 341 342 344 346 346 347 346 347 347 347 349 351 351 352 351 351 352 351 350 349 350 349 350 349 349 349 350 351 351 351 352 352 352 354 356 358 358 358 359 359 359 358 359 360 361 361 361 361 359 362 358 361 361 360 362 360 359 357 359 359 358 358 355 352 355 352 350 347 346 348 348 344 341 341 339 343
330 332 334 335 336 337 338 339 340 341 342 344 346 347 347 347 347 348 348 350 351 353 352 351 352 353 353 352 350 353 354 352 352 354 352 352 351 351 351 352 353 354 355 357 357 358 358 357 359 359 359 358 359 360 360 360 360 361 360 361 359 364 366 362 361 359 359 361 359 359 358 357 356 356 357 354 353 352 355 349 351 347 343 341 341
329 331 333 335 337 338 339 340 341 342 342 344 346 347 347 348 348 348 348 351 351 353 352 352 352 353 353 353 352 352 353 352 351 352 352 353 353 352 352 353 354 354 355 357 357 357 358 358 357 357 358 359 359 360 360 360 361 362 363 361 361 360 364 360 359 361 362 361 360 361 359 359 359 362 359 359 361 360 355 355 353 351 348 346 342
329 332 334 336 337 338 339 340 342 342 343 344 346 348 348 349 349 348 349 350 351 353 353 352 352 352 353 354 353 354 353 353 352 352 354 354 353 353 354 353 354 355 356 356 358 357 357 362 358 357 358 359 360 360 361 361 361 362 362 362 362 361 361 362 360 361 361 362 362 361 359 360 361 360 359 358 361 360 358 356 355 353 351 351 346
328 330 333 335 336 338 339 340 342 343 345 345 347 348 349 349 350 350 349 350 352 354 354 354 353 353 353 355 355 355 355 354 354 355 355 354 354 354 354 354 355 357 359 358 357 356 357 357 359 357 357 359 359 360 361 361 361 360 360 361 361 361 361 360 361 361 362 362 360 360 360 360 360 359 360 358 359 360 359 358 360 354 351 354 350
328 329 332 335 336 338 339 340 341 343 343 345 347 348 348 349 350 350 351 351 352 353 355 353 353 354 354 356 356 357 357 355 354 355 355 354 355 355 355 354 355 357 358 358 358 357 357 356 356 357 356 357 358 359 359 360 360 360 360 359 360 361 361 360 360 360 360 361 361 360 361 361 361 360 360 359 359 360 360 357 358 358 357 354 354
328 330 331 334 336 338 339 341 342 344 345 345 346 348 348 349 349 351 350 350 351 353 354 354 354 354 355 354 356 357 357 356 355 355 355 355 355 358 356 356 357 356 358 357 358 359 358 357 356 358 356 357 358 359 359 360 359 359 359 359 360 360 360 360 361 361 361 361 361 360 360 361 360 360 360 358 358 358 358 358 358 356 356 357 354
329 330 332 333 336 337 339 340 342 343 343 344 346 347 348 348 349 350 351 351 351 352 353 354 355 354 354 355 356 357 358 357 355 355 356 355 355 356 357 357 356 357 358 357 358 358 359 358 357 357 358 357 358 359 358 358 358 358 358 358 359 359 359 360 359 359 360 360 361 360 361 361 361 359 359 357 358 357 356 357 356 356 355 357 357
329 331 332 333 335 337 338 339 340 342 343 344 345 346 347 348 349 350 350 350 351 352 353 354 354 354 354 356 357 357 357 357 355 355 355 355 355 356 357 356 356 357 358 358 358 358 359 359 359 359 358 357 359 358 358 358 358 358 357 358 359 360 359 359 358 359 359 360 359 360 360 360 358 358 357 357 357 356 357 356 355 354 354 353 354
331 331 333 334 335 336 336 337 339 341 342 343 345 346 347 348 349 350 350 350 351 352 353 353 353 354 355 356 356 357 357 356 355 355 354 355 356 356 358 356 356 356 356 358 358 358 358 359 358 359 358 358 358 358 358 358 358 358 358 358 359 359 359 359 358 359 359 360 359 359 359 359 358 357 357 357 357 355 356 356 355 356 355 354 354
329 330 331 333 334 334 335 337 338 340 342 343 344 345 346 347 348 349 350 351 351 352 352 352 353 353 353 354 355 356 356 356 356 355 355 355 355 356 357 357 356 355 356 356 358 358 358 358 357 358 358 358 358 358 359 358 358 359 358 358 359 359 359 359 359 360 361 361 360 359 360 359 358 356 356 355 355 355 354 354 354 355 355 354 355
330 329 330 332 333 335 335 336 338 340 341 343 344 345 346 347 348 349 350 350 351 352 352 352 352 352 352 353 354 356 356 355 356 356 355 355 355 355 355 357 357 356 356 356 356 356 357 357 358 358 359 359 359 359 359 359 358 359 358 359 359 359 358 359 359 359 359 361 361 361 361 360 358 356 356 356 356 354 351 350 351 352 352 351 349
332 332 331 331 332 333 335 336 338 340 341 343 344 345 346 346 347 349 350 350 351 352 352 351 351 351 351 352 353 354 356 356 356 356 356 356 355 355 354 354 357 356 355 354 354 355 357 357 358 358 358 359 359 358 359 359 359 359 359 359 358 358 359 358 359 358 359 360 360 359 360 359 358 357 355 355 355 353 350 351 353 352 351 349 348
332 331 330 330 331 332 333 335 336 339 341 343 345 345 346 346 347 348 349 350 351 351 351 351 351 351 351 351 352 354 355 356 356 357 356 355 355 355 355 355 356 356 355 354 354 354 355 356 356 357 358 359 359 358 358 359 359 358 358 358 358 358 358 359 359 360 360 360 360 359 358 359 358 358 357 356 355 354 354 351 352 351 351 350 349
333 332 332 330 330 331 333 334 336 338 340 342 344 345 346 347 348 349 350 350 351 350 350 350 350 350 350 351 352 353 354 355 357 356 355 354 353 354 354 354 355 355 354 355 355 354 355 355 356 357 358 358 357 357 358 358 358 358 358 357 358 358 358 358 358 358 359 359 359 358 358 358 359 362 364 363 361 358 355 354 355 353 352 351 350
333 334 335 335 333 333 333 335 336 337 339 341 343 344 345 346 347 349 350 351 351 350 350 349 349 349 351 351 351 352 352 353 354 354 354 354 353 353 352 352 352 354 354 356 355 355 354 354 354 355 356 356 357 357 360 362 362 360 358 357 357 359 358 358 358 358 357 357 356 356 355 361 363 366 367 372 369 369 370 363 361 355 354 353 352
334 334 335 336 335 335 336 336 336 337 338 340 342 344 346 347 347 348 349 351 352 350 350 349 349 350 350 351 350 351 351 351 352 353 353 353 353 353 353 352 352 352 353 354 356 353 352 353 353 354 354 354 355 356 359 345 346 356 362 358 358 358 359 358 357 358 357 357 357 356 355 356 367 372 367 366 366 365 366 368 366 365 358 356 352
333 334 335 335 335 335 336 336 337 337 338 339 340 342 344 345 346 348 349 351 351 350 349 349 350 350 350 350 350 350 350 350 350 351 352 352 352 351 351 351 351 350 352 353 353 352 352 352 353 353 353 354 355 353 341 342 346 346 359 362 358 357 357 357 357 357 357 356 356 354 353 362 362 358 356 355 359 364 362 362 363 363 363 361 356
333 333 335 335 336 336 337 338 338 338 338 339 340 341 342 343 344 345 347 347 346 346 347 347 347 348 348 348 349 349 349 348 349 349 350 350 350 349 348 348 348 350 350 351 351 351 351 352 352 352 353 354 355 346 340 340 339 340 342 360 360 360 358 357 357 357 357 357 356 355 356 357 356 365 361 353 355 359 360 359 358 359 363 357 342
333 334 335 336 336 337 337 338 339 341 342 341 343 342 342 343 344 343 342 342 343 343 344 342 343 344 345 346 346 347 347 347 348 349 349 350 349 348 348 348 349 350 349 348 349 350 350 351 350 351 352 353 354 339 332 332 332 332 334 342 353 356 357 358 358 356 355 355 355 354 356 354 352 354 353 352 355 355 356 357 357 357 358 358 352
332 333 334 334 335 335 336 337 337 339 341 341 342 343 343 342 342 340 340 341 342 341 341 341 341 340 341 343 346 346 346 346 346 348 348 349 349 349 348 348 349 350 349 349 349 349 349 351 350 350 350 349 341 324 325 327 326 327 330 341 347 349 351 353 354 355 356 355 354 354 355 353 351 349 350 352 351 353 354 354 356 355 355 353 351
332 333 332 332 333 335 336 336 339 339 340 340 340 342 341 340 341 340 340 340 340 339 338 339 340 340 340 341 340 342 345 345 345 347 348 348 348 347 347 346 348 347 349 350 349 350 348 347 346 346 347 341 329 319 320 320 321 323 330 344 348 349 349 350 351 352 353 355 355 355 354 351 349 348 348 333 342 349 352 352 353 353 352 350 349
330 331 331 332 333 334 336 337 337 338 339 339 340 341 340 339 338 338 339 339 338 337 337 340 342 341 342 342 342 342 341 342 341 340 340 341 341 343 344 346 345 347 348 347 345 341 340 340 341 338 338 333 332 322 316 316 317 317 334 347 349 350 350 349 352 354 355 355 353 351 349 347 344 343 330 323 326 344 348 349 349 349 349 348 343
329 331 331 332 332 334 336 337 337 337 338 339 340 340 338 337 336 336 336 336 335 336 338 339 340 342 343 342 341 341 341 340 339 340 340 341 342 342 342 346 345 347 347 345 343 339 338 339 337 335 335 334 331 324 315 314 315 317 331 343 348 351 352 352 353 353 353 352 352 354 348 344 342 337 323 322 325 343 347 346 348 348 347 346 342
329 328 328 329 329 331 331 333 334 333 335 337 337 336 335 335 335 335 336 334 335 337 338 338 340 342 344 343 342 341 341 340 340 340 341 341 341 341 342 341 340 343 344 343 342 339 336 337 339 340 339 333 332 329 315 313 313 316 331 340 343 348 349 350 351 350 348 349 350 350 346 339 336 326 316 320 322 341 343 344 345 346 344 342 339
328 328 328 328 329 328 328 328 329 330 334 335 336 335 334 333 333 334 333 333 334 335 337 339 341 342 344 343 343 343 341 341 340 340 342 341 342 342 341 341 341 342 342 343 342 339 337 336 336 334 334 333 330 326 320 312 312 315 323 340 340 343 346 349 351 349 346 345 343 339 333 322 319 317 314 312 314 317 337 342 344 343 340 337 336
324 325 328 326 327 327 326 327 328 331 333 333 333 332 331 331 330 330 330 331 333 335 337 338 339 341 342 342 342 342 342 341 341 341 342 342 342 340 340 340 340 342 341 340 339 337 335 334 334 335 335 333 330 325 320 312 311 313 318 332 339 338 340 342 343 345 342 340 339 336 331 323 316 314 312 310 310 314 322 337 338 338 338 336 334
325 327 326 324 325 325 326 326 328 330 331 331 331 329 328 328 327 325 327 329 330 331 333 334 335 336 337 338 340 341 342 342 342 341 339 340 340 341 341 341 341 339 337 336 335 334 334 334 333 332 331 330 332 329 324 315 312 311 312 319 329 331 333 341 339 339 335 330 329 331 331 324 315 313 312 309 310 313 317 332 332 317 316 323 337
321 323 325 325 323 323 324 325 327 328 329 330 329 327 327 326 325 326 328 329 329 329 330 331 332 332 334 335 336 339 341 342 342 341 339 337 338 339 340 341 338 336 334 331 331 332 331 328 328 328 327 327 328 328 325 322 315 311 311 312 314 320 321 329 329 328 326 327 329 331 332 324 313 309 307 308 310 313 326 325 311 313 316 320 333
322 323 324 324 322 322 322 323 324 325 326 327 328 327 327 326 325 329 330 330 328 327 328 329 331 330 330 332 335 335 336 336 337 336 336 334 335 338 339 339 337 333 330 330 331 332 329 327 326 325 325 326 326 326 324 323 321 314 311 311 311 311 314 322 324 323 324 323 324 327 326 313 311 309 306 309 312 319 321 311 309 314 320 330 330
320 322 324 322 321 320 321 321 323 323 324 324 325 326 326 324 326 329 329 330 330 329 327 326 326 328 330 331 332 333 333 333 333 334 334 335 335 336 334 333 331 330 330 329 330 331 329 327 325 323 322 321 321 321 323 325 323 321 314 313 315 315 314 315 323 323 325 325 318 312 311 312 313 308 309 314 320 319 315 314 312 321 330 325 326
320 321 321 320 319 320 320 320 321 322 322 324 322 323 322 323 325 327 327 328 329 330 330 329 329 330 330 330 327 326 326 327 328 329 330 331 334 334 332 331 331 331 331 331 331 330 328 326 323 321 319 319 319 319 318 320 323 323 321 317 315 319 323 322 322 321 320 319 316 313 312 311 313 316 327 330 327 325 320 320 322 326 324 323 323
317 320 320 317 318 318 319 319 318 319 320 320 320 321 322 324 324 324 326 327 327 327 328 327 328 329 330 329 327 325 322 321 321 322 322 326 328 330 333 332 332 331 331 333 331 329 327 325 321 320 320 319 319 318 318 318 318 319 319 319 319 319 320 320 321 321 321 323 324 326 323 319 320 323 325 326 326 326 326 325 324 323 323 322 322
316 317 317 316 316 317 318 318 318 318 319 320 320 320 321 321 322 324 327 328 330 327 322 323 325 329 330 329 329 328 321 317 316 315 314 316 318 322 322 321 322 325 330 330 330 330 327 324 319 319 317 317 317 317 316 314 312 313 313 316 317 316 315 314 315 314 315 323 326 325 322 325 324 322 321 321 321 323 323 322 321 322 324 327 327
316 317 318 316 318 317 317 318 318 317 318 319 320 321 321 321 321 324 326 327 328 331 327 323 323 324 326 326 320 320 318 315 314 312 310 308 310 313 317 318 317 315 318 325 332 331 327 322 320 318 318 316 317 317 314 306 309 303 307 311 313 311 309 311 314 307 317 325 325 323 322 321 320 320 319 318 318 318 319 319 318 318 318 318 319
317 318 318 319 319 318 319 319 318 318 320 320 320 321 322 322 322 322 325 327 328 327 324 324 324 323 322 322 320 318 318 317 315 314 313 310 307 301 305 313 313 312 306 304 314 326 323 320 318 315 315 317 317 315 304 296 294 294 295 295 296 295 296 302 304 302 318 321 321 320 320 319 318 318 317 317 316 317 317 317 318 319 318 317 317
316 317 317 318 319 321 320 320 319 321 321 321 321 320 321 322 321 322 323 323 324 325 323 323 327 326 324 322 319 316 316 315 315 316 317 316 314 311 298 298 305 305 300 296 297 300 306 312 319 314 309 304 304 299 294 294 294 293 293 292 292 292 294 294 297 315 320 320 321 320 319 320 319 319 318 317 318 318 318 317 317 317 318 318 317
Wind_Speed
7 9 10 10 10 9 8 7 7 7 6 7 8 7 7 7 7 7 6 7 6 6 5 6 5 4 3 3 3 3 3 2 2 2 2 2 3 3 3 3 3 2 2 2 2 2 2 3 3 3 1 2 2 2 2 3 2 2 3 2 3 5 3 4 2 2 3 2 4 5 5 1 3 3 4 3 4 4 3 4 3 3 4 5 5
5 5 6 8 8 10 8 8 8 9 7 8 8 8 7 7 8 6 6 6 6 6 6 5 4 4 4 4 3 3 3 3 3 3 3 2 3 3 3 3 2 2 1 2 2 2 3 3 3 3 0 2 2 2 3 3 3 4 3 4 2 2 2 3 5 2 5 2 2 4 5 6 3 3 3 4 2 2 3 3 3 4 5 5 3
7 8 9 9 11 11 9 8 8 8 7 8 7 7 7 6 6 6 6 6 6 6 5 5 4 4 4 4 4 3 2 2 3 2 2 3 2 2 3 2 2 2 2 1 1 2 3 3 3 1 1 1 2 3 3 4 3 3 3 3 5 1 2 2 4 3 2 1 2 1 3 5 5 5 3 3 2 2 2 4 3 5 6 4 3
9 9 10 10 10 10 8 8 8 7 7 6 7 8 6 6 6 6 6 6 6 6 6 4 5 5 4 5 5 4 3 2 2 2 2 2 2 1 1 3 3 2 1 1 1 2 3 3 2 2 1 1 0 3 4 4 4 4 3 3 1 4 4 4 3 4 3 1 2 2 1 1 3 3 4 6 2 4 2 3 3 4 5 4 3
10 9 8 9 10 11 11 10 9 9 8 8 8 8 6 8 7 7 6 6 5 6 6 5 5 4 3 3 4 4 4 3 3 1 2 2 1 2 3 2 3 2 1 1 1 1 2 2 2 2 1 0 0 2 3 3 3 2 2 3 4 2 5 3 3 3 4 1 5 1 1 2 1 4 3 4 4 4 4 4 3 3 4 4 3
12 12 12 12 12 9 8 9 10 9 9 8 8 8 8 7 7 6 5 5 6 5 6 6 6 6 5 5 5 4 3 4 5 5 4 4 4 2 2 2 2 2 2 2 2 1 2 2 2 1 1 1 1 2 2 3 4 3 2 2 3 2 0 4 4 3 2 3 1 1 2 0 2 2 0 2 5 1 3 3 3 3 2 3 3
10 11 11 10 9 10 10 11 11 11 9 8 7 7 8 8 8 7 7 6 6 6 7 6 6 6 6 7 6 6 6 4 4 4 5 4 3 4 4 3 3 3 2 2 2 2 2 3 3 2 1 1 1 1 3 3 3 3 2 2 2 2 2 4 5 4 2 1 2 1 1 1 1 1 2 0 2 4 3 3 5 6 4 3 4
11 11 11 12 13 13 14 13 12 12 10 9 8 8 8 9 8 8 6 6 6 6 7 7 7 6 6 5 6 6 7 7 6 5 4 4 4 4 3 3 3 3 3 3 2 2 2 3 2 2 1 0 1 2 3 3 3 2 2 1 2 2 2 3 4 4 4 4 3 3 2 2 1 2 2 1 1 1 5 4 0 5 4 4 3
13 11 12 11 12 12 12 12 11 10 10 10 10 9 8 8 8 7 7 7 6 7 7 7 6 7 6 6 5 5 5 5 4 4 5 4 5 3 4 4 3 3 3 3 3 3 3 3 2 2 2 2 2 2 2 2 3 3 2 3 3 3 1 1 2 4 3 3 4 3 2 3 2 2 1 2 1 0 2 2 4 5 3 4 5
11 14 13 13 12 12 12 11 11 11 10 10 9 8 8 8 8 8 8 7 6 7 7 7 6 6 6 6 6 5 3 3 4 5 5 5 5 5 4 4 4 4 3 3 3 3 3 3 3 3 4 3 2 3 2 3 3 3 2 1 1 3 2 1 2 1 1 2 1 1 3 2 2 2 2 2 1 2 2 2 2 2 4 4 3
9 10 12 13 12 11 9 11 11 9 8 9 9 9 9 9 9 9 9 7 7 8 7 7 6 6 6 7 7 7 6 6 5 4 4 4 5 5 4 5 4 4 3 3 4 3 3 3 4 4 3 2 1 2 3 3 3 3 1 0 1 2 3 3 2 1 1 1 2 2 2 2 1 0 2 2 1 2 3 3 2 1 2 4 3
10 10 10 9 7 6 7 8 9 10 9 10 9 9 9 9 9 10 8 7 7 7 7 7 6 6 6 7 7 7 7 6 7 7 7 7 7 6 5 4 4 4 3 3 4 3 4 4 4 3 3 2 3 2 2 2 2 1 1 1 0 1 1 2 2 3 2 1 2 1 1 2 1 2 2 2 1 2 0 2 2 3 1 3 4
10 10 9 9 10 10 10 9 7 9 10 11 11 10 10 9 11 11 10 8 8 7 8 7 6 6 6 7 6 6 7 7 7 7 7 7 6 6 5 5 4 4 4 4 5 5 4 4 4 4 3 3 3 2 3 2 2 2 2 1 0 2 1 1 3 2 2 3 3 2 1 1 2 2 1 1 0 1 2 2 1 0 2 3 2
10 10 10 11 11 11 11 11 11 10 11 11 11 10 10 10 10 11 11 10 8 8 8 8 7 7 6 6 6 6 6 6 6 7 7 6 6 6 6 6 5 6 5 6 5 4 4 5 4 4 4 3 3 3 3 2 1 2 1 2 2 1 1 1 1 1 1 2 1 3 2 2 2 1 1 2 2 2 1 1 2 1 1 2 2
10 10 11 12 12 12 11 11 11 11 11 11 10 10 10 10 10 11 10 9 10 10 8 8 7 7 6 6 6 6 6 6 6 6 6 6 5 6 6 5 5 6 6 5 4 5 5 4 4 4 4 4 3 3 2 2 2 1 1 1 1 1 1 1 1 1 2 3 2 2 3 2 2 1 0 1 1 2 2 2 2 3 3 2 2
10 10 11 12 12 12 10 10 10 10 11 10 11 10 10 10 11 11 12 11 10 9 9 9 8 6 7 7 7 6 5 5 5 5 5 6 7 7 7 6 6 6 5 4 5 5 5 5 4 5 4 3 3 3 3 3 2 2 2 1 3 1 1 2 1 1 2 3 3 2 3 4 3 2 1 0 1 2 2 2 2 3 1 4 2
11 11 11 12 10 10 11 11 10 10 10 11 11 11 12 11 11 10 10 9 10 10 9 8 8 7 7 7 6 6 7 7 6 7 7 6 6 6 6 7 6 5 5 4 4 5 5 5 5 4 4 4 3 4 4 4 3 3 3 3 3 1 1 3 2 2 2 2 2 3 3 4 4 2 2 1 1 0 1 2 2 2 4 1 3
13 12 12 13 13 13 11 10 11 12 13 12 12 11 11 11 12 12 10 11 10 9 8 8 8 8 7 7 6 6 7 7 7 7 6 6 6 5 5 5 6 5 5 4 5 5 5 5 5 5 4 4 4 4 4 4 4 3 4 3 3 1 2 2 2 2 2 1 2 3 2 3 3 3 2 2 2 2 2 1 2 2 3 2 2
10 10 10 11 11 12 12 12 12 11 12 12 12 11 10 9 10 11 12 12 11 8 8 7 8 6 6 7 7 6 6 6 6 6 6 6 6 6 6 7 5 5 5 5 5 5 5 5 5 5 4 4 4 4 4 4 4 4 4 3 3 3 3 3 3 2 2 1 2 3 3 3 2 3 3 2 2 2 2 1 1 1 2 2 3
10 11 11 12 12 13 13 12 12 12 11 10 10 9 11 10 10 10 9 8 8 9 9 9 7 7 6 6 7 7 6 6 6 6 6 6 6 6 6 6 7 5 5 6 5 5 5 5 4 5 5 4 4 4 4 4 4 4 4 3 3 3 3 4 3 2 2 2 3 4 4 4 3 2 2 2 2 2 1 2 1 1 1 2 2
11 11 11 12 12 12 12 11 11 11 10 10 10 11 11 10 10 10 10 10 10 9 10 9 8 8 8 8 7 7 7 6 6 6 6 7 6 6 6 6 5 6 5 6 6 6 6 5 5 5 5 5 5 5 4 4 4 4 4 4 3 3 4 3 3 4 2 2 3 4 4 4 2 3 3 3 2 2 2 2 1 1 2 2 3
11 11 11 11 11 11 11 9 8 9 9 10 10 9 9 10 10 10 9 9 10 9 9 9 8 8 9 8 7 7 6 6 7 6 7 6 6 6 6 5 6 6 6 6 6 5 5 6 5 6 6 6 6 6 5 4 5 5 4 3 4 4 4 4 3 4 4 3 3 4 5 4 2 3 3 3 2 3 2 3 2 2 3 2 3
10 11 11 11 11 11 11 12 11 12 11 11 10 10 10 10 10 9 10 10 10 10 9 8 8 8 9 8 7 6 7 7 7 6 7 6 6 6 5 6 6 5 5 6 6 6 6 6 6 6 6 6 6 6 5 5 5 5 5 4 4 4 4 5 5 5 5 3 4 4 5 4 2 3 3 3 2 3 2 2 3 1 3 3 2
6 8 9 10 10 10 9 10 10 9 9 11 10 9 9 9 9 9 11 11 10 9 8 8 8 8 8 7 8 7 7 7 7 6 7 6 6 5 5 6 6 5 5 5 6 6 6 6 6 6 6 6 6 5 5 5 6 6 6 6 5 5 5 5 5 5 5 4 4 4 5 4 3 3 4 4 3 2 2 2 3 3 2 3 1
6 7 8 9 9 10 11 11 11 11 10 10 10 10 10 9 9 10 10 10 10 9 9 9 9 9 8 8 7 7 7 7 7 6 7 6 6 6 5 6 5 5 6 5 5 5 5 5 5 6 6 6 6 6 6 6 5 5 6 6 5 5 5 5 5 5 5 5 5 5 6 4 3 4 4 4 3 5 3 3 4 4 3 3 1
6 5 6 9 10 10 10 10 10 10 11 10 10 10 10 9 10 10 10 9 9 8 9 9 8 9 9 9 9 7 8 8 8 7 7 7 6 6 6 5 6 6 6 6 6 5 6 7 7 7 7 7 7 6 7 7 6 6 5 5 5 5 5 5 5 5 6 5 5 6 5 4 4 4 5 5 5 5 4 4 5 5 4 3 3
4 5 6 5 6 9 10 10 11 11 11 10 11 10 10 10 10 10 9 8 8 8 9 8 8 9 9 9 9 8 7 7 7 7 6 6 6 6 6 6 6 6 6 6 6 6 6 6 7 7 7 7 7 6 6 6 6 5 5 5 5 6 5 5 5 6 6 6 6 5 5 5 5 5 5 6 5 5 4 5 6 6 3 3 4
4 3 4 7 7 7 8 10 10 10 9 9 9 10 11 11 11 10 9 8 7 8 8 8 8 8 9 9 9 9 8 8 7 6 6 6 6 6 6 6 5 6 7 7 7 7 6 6 6 7 7 6 6 6 6 6 6 5 5 5 6 6 6 5 6 5 6 6 6 6 6 5 5 5 6 6 5 6 4 5 5 3 3 3 4
4 3 2 5 8 7 8 9 10 9 10 10 8 8 6 6 6 7 8 9 9 9 9 9 9 9 9 9 8 7 7 7 7 7 7 7 7 7 6 6 6 6 6 6 6 6 6 6 7 6 6 5 6 6 5 5 6 6 6 6 6 6 6 6 5 6 5 6 6 6 6 5 5 8 10 9 8 6 4 5 6 3 4 4 3
3 2 3 3 3 4 6 6 7 9 10 9 9 8 9 9 7 5 6 6 7 8 9 9 10 10 9 8 8 7 7 7 7 7 7 7 7 6 6 7 7 7 7 6 6 6 6 7 7 7 6 5 5 5 7 11 9 6 6 5 5 6 6 6 6 5 5 5 6 5 5 9 10 12 11 5 2 1 5 5 5 3 4 3 3
2 2 2 2 5 6 6 6 7 7 8 8 8 8 7 7 7 7 7 6 7 8 8 9 10 9 8 7 6 7 6 7 8 7 7 7 7 6 6 6 6 6 6 6 5 6 6 6 7 6 7 6 5 5 11 12 12 12 7 6 6 6 5 5 5 6 6 6 5 4 4 6 7 3 2 2 1 0 2 1 3 6 5 4 3
2 2 3 3 4 6 7 7 7 7 8 8 7 7 8 8 7 8 7 7 7 6 8 8 6 3 4 5 6 6 6 7 6 7 6 6 5 6 6 6 6 6 6 5 6 7 7 6 6 6 6 6 6 8 11 11 12 12 10 6 5 5 5 5 5 6 5 5 5 4 3 1 1 2 2 1 1 1 2 3 3 3 1 6 5
2 3 2 2 2 4 5 6 6 7 7 7 8 7 7 6 5 4 6 5 5 3 2 1 3 6 6 6 5 5 6 6 6 5 5 4 5 6 6 6 8 7 5 6 7 6 7 6 6 7 7 6 7 8 9 7 6 7 7 7 4 5 5 6 6 6 6 6 5 4 3 2 1 3 2 1 1 1 1 3 5 5 5 6 3
4 3 2 2 2 1 3 2 3 1 3 4 5 7 7 8 8 8 7 6 7 7 7 5 2 3 1 3 5 5 6 6 6 6 6 6 6 7 7 6 6 5 6 6 6 7 6 7 7 8 7 6 5 3 3 1 1 2 3 3 4 5 5 6 6 6 5 6 6 5 5 5 3 3 2 2 2 2 1 1 2 2 2 5 6
4 3 3 4 3 3 3 3 1 2 3 3 4 5 6 7 8 9 8 7 5 5 6 8 7 5 2 6 5 4 7 7 7 7 6 7 7 7 6 6 7 8 8 7 7 6 5 5 5 5 5 4 2 4 3 2 1 2 3 4 4 4 4 5 5 5 6 6 6 5 6 7 6 4 2 3 2 2 2 2 2 2 2 3 3
6 3 4 4 3 1 2 3 2 3 4 3 4 4 6 6 5 7 7 7 7 5 6 7 1 5 7 6 1 10 9 4 5 3 1 2 3 4 5 3 2 1 1 2 2 2 3 1 1 1 3 3 3 5 4 3 3 2 2 3 3 4 4 4 5 5 5 5 5 5 7 6 6 5 2 4 3 1 2 3 3 3 3 3 3
7 7 6 5 5 5 5 3 4 4 4 4 5 6 7 7 7 7 7 6 7 6 7 4 2 3 3 5 6 3 5 4 3 5 5 5 3 5 7 2 2 2 3 2 2 2 2 3 3 3 4 3 2 3 4 4 4 5 2 2 3 3 5 6 5 2 1 2 1 2 2 2 2 2 2 1 2 4 2 3 3 3 3 3 1
6 6 6 7 7 6 6 2 5 6 4 3 3 5 8 8 6 5 6 7 6 4 5 6 5 4 3 3 4 7 6 4 3 4 5 5 5 5 3 4 6 2 5 3 3 3 2 2 3 4 3 4 3 5 8 7 7 7 4 1 3 4 4 3 2 2 2 2 2 6 4 3 2 2 5 5 5 3 3 3 3 3 4 3 1
7 8 8 8 8 8 9 8 7 6 4 4 5 5 5 5 5 5 5 6 6 6 5 4 3 2 4 3 5 6 6 5 5 5 5 4 3 3 2 3 1 6 3 3 4 4 4 4 4 5 7 7 5 6 10 9 8 7 4 2 2 2 3 3 4 3 2 2 3 8 10 7 6 5 7 8 9 5 1 1 2 3 3 3 1
8 9 8 9 9 11 12 10 10 8 6 5 5 5 5 5 3 3 5 5 4 4 5 5 3 3 4 3 3 4 6 5 5 5 3 5 4 3 3 2 2 2 3 3 2 4 5 5 5 5 5 5 6 6 8 11 12 11 8 3 4 3 3 4 3 3 2 3 3 4 7 8 8 7 8 9 8 10 3 1 3 3 4 4 2
9 9 8 9 9 10 10 10 9 9 8 7 7 8 7 5 6 6 6 4 2 3 4 6 5 3 2 2 3 4 5 5 7 5 6 7 6 6 5 5 4 4 2 1 3 4 5 6 8 7 7 6 6 6 9 13 14 14 14 9 4 4 3 4 4 1 1 2 4 4 4 6 7 8 7 8 9 9 8 3 2 2 2 2 2
7 10 8 7 9 10 10 11 9 9 7 6 7 8 6 7 8 8 6 4 4 4 4 6 7 7 6 7 6 5 3 3 4 3 4 5 4 3 3 3 4 4 4 2 4 7 6 6 5 6 6 7 8 10 7 13 15 16 16 15 8 7 7 2 3 5 3 3 3 3 3 3 5 5 6 6 8 8 9 5 1 5 5 1 2
9 9 9 8 8 10 11 10 9 8 7 6 9 10 8 7 9 5 3 3 4 6 7 8 9 9 9 8 7 6 4 3 3 1 1 2 2 3 3 4 6 5 4 4 4 5 6 7 7 5 6 6 5 8 13 12 14 16 16 16 16 12 15 10 6 4 5 3 2 1 2 6 6 7 8 9 9 9 6 5 5 4 6 4 5
7 6 7 8 9 8 8 8 7 8 8 8 7 8 8 9 8 4 5 6 7 8 8 9 8 7 7 6 5 4 4 4 5 4 4 3 1 1 2 3 6 6 5 4 3 4 6 6 6 5 5 4 5 6 11 13 11 14 14 14 14 15 14 8 7 6 6 6 5 4 3 6 5 7 10 10 8 7 4 5 8 3 7 8 6
7 7 6 7 8 9 9 9 8 9 8 8 8 8 9 10 6 5 7 7 7 8 8 8 8 7 6 5 6 6 7 8 8 8 8 6 4 3 4 5 7 6 6 5 4 4 5 5 5 5 4 4 4 5 6 9 13 13 13 12 11 11 10 8 6 4 5 3 4 9 12 5 5 9 9 7 4 5 8 4 9 3 8 6 6
6 7 6 6 8 9 9 9 9 8 8 7 7 8 9 4 4 6 6 6 7 7 7 6 6 6 7 7 8 8 8 9 8 8 7 6 6 6 6 5 5 5 5 5 6 5 5 5 5 4 5 4 4 5 5 4 6 8 8 8 8 8 8 6 4 1 4 11 10 7 11 11 7 6 4 2 3 4 7 7 7 8 5 5 5
6 4 4 6 7 8 8 8 9 8 8 8 8 7 6 5 6 6 6 6 7 7 6 6 6 6 6 6 7 5 5 6 7 6 6 6 6 5 5 5 4 5 5 5 6 5 5 5 5 4 4 4 4 3 3 4 5 5 5 5 4 4 6 4 4 3 4 6 8 6 5 5 4 3 6 7 7 7 6 5 4 6 6 6 5
4 4 5 6 7 6 6 7 6 5 5 6 7 6 5 5 6 5 5 6 6 6 6 6 6 6 5 5 6 8 6 5 6 6 6 6 5 5 5 4 2 1 3 4 4 4 4 5 5 4 4 3 2 3 3 4 3 3 3 3 3 4 4 3 1 3 4 4 3 6 7 7 7 6 4 4 4 5 5 5 5 5 6 7 9
5 4 5 5 5 6 5 5 4 4 4 6 6 6 6 6 5 5 5 6 5 5 6 6 5 5 5 5 5 4 4 5 6 6 6 6 4 3 3 4 4 2 2 1 3 4 4 4 4 4 4 4 2 3 2 2 3 4 3 3 3 2 2 2 2 3 3 1 3 4 5 6 6 6 4 4 4 5 6 5 6 5 5 5 4
4 5 4 4 4 5 4 4 3 3 4 5 5 5 5 6 5 5 5 5 4 5 5 6 5 5 4 4 4 4 4 4 5 5 5 6 9 9 6 3 3 8 8 3 1 3 5 5 5 3 4 1 3 3 5 5 4 3 2 2 2 4 5 5 6 7 1 3 4 4 4 4 5 5 5 4 4 4 4 4 5 5 5 5 5
4 6 5 5 3 3 4 4 2 3 4 4 5 5 5 6 5 5 5 5 5 5 5 4 5 5 4 4 4 5 4 5 5 5 5 6 5 6 10 10 9 9 8 12 13 12 11 7 5 4 6 11 9 8 6 4 2 2 3 4 4 4 4 5 6 2 4 4 4 5 4 4 5 5 5 4 3 4 4 4 5 5 5 5 4
Wind_Direction
182 169 163 157 152 158 161 163 165 162 152 152 153 152 154 161 160 167 158 147 149 149 148 146 138 125 94 142 153 160 160 140 156 153 171 183 174 168 174 177 182 180 167 153 213 271 271 294 286 302 345 3 0 13 313 310 311 319 318 318 335 359 321 342 17 30 46 4 357 0 337 271 262 257 249 253 238 240 234 240 244 255 249 250 251
129 138 148 141 147 154 161 165 166 169 169 160 165 161 157 160 169 162 152 152 158 161 156 151 146 158 149 166 154 145 157 167 186 201 186 177 169 165 169 166 170 185 179 165 220 224 279 273 251 255 47 18 5 332 335 321 345 3 342 343 51 24 293 323 333 12 35 74 30 331 343 324 323 328 321 284 295 283 259 255 253 249 255 250 249
165 164 156 156 151 156 164 169 173 174 168 167 166 152 156 162 171 159 158 156 161 159 149 155 143 146 140 159 153 137 166 174 164 145 170 163 159 165 157 149 145 159 160 169 210 242 235 238 236 184 90 12 1 6 345 351 354 345 345 11 338 10 262 274 352 28 112 134 120 65 351 4 331 355 333 319 330 288 247 244 247 251 259 267 260
171 166 165 159 157 157 163 171 171 166 170 171 168 163 161 164 170 163 162 158 159 163 160 150 152 159 154 154 159 134 175 146 107 86 116 122 188 149 218 159 157 162 144 157 335 201 204 221 196 174 137 51 351 334 334 338 339 340 347 0 49 349 2 328 23 30 105 132 1 30 262 83 358 326 323 299 294 299 342 307 271 265 276 296 318
171 168 162 157 158 167 172 173 167 170 177 181 176 170 170 171 173 169 167 166 161 167 157 152 140 130 116 86 109 83 59 78 105 84 145 191 166 197 220 178 167 185 173 192 220 192 202 223 186 180 127 50 248 300 319 308 312 306 310 339 25 33 352 332 322 20 46 78 134 105 356 15 233 253 349 287 345 351 349 334 305 286 296 305 304
168 172 172 171 170 162 159 168 173 174 180 185 181 171 161 166 166 166 164 163 164 170 154 153 157 152 143 136 144 144 122 135 174 193 190 189 208 183 192 195 184 197 204 240 260 178 199 216 179 158 130 200 227 281 303 336 321 344 337 331 5 19 56 9 1 360 40 64 94 187 179 149 254 281 32 310 317 214 300 328 4 354 325 311 315
177 171 169 166 166 162 167 174 177 179 184 174 177 171 160 162 166 168 171 173 170 166 159 160 156 164 165 162 162 169 166 207 198 187 182 201 177 184 206 205 194 197 229 204 231 231 198 209 190 163 125 128 280 11 311 306 310 311 332 349 3 10 56 39 21 319 344 359 31 60 127 280 201 61 319 256 345 319 350 340 353 356 358 15 351
172 174 175 174 172 171 175 179 178 183 174 170 176 172 164 165 165 170 173 173 176 161 165 167 163 170 163 163 165 168 177 188 183 189 182 162 177 195 192 215 205 207 218 218 204 209 206 214 183 162 137 209 238 270 283 299 314 315 28 357 328 30 36 49 7 6 58 345 353 17 24 66 64 100 130 345 174 19 330 333 308 1 2 32 12
171 173 177 177 179 183 175 176 177 167 170 176 179 176 169 166 164 164 172 173 174 167 164 173 165 165 164 162 169 185 182 178 170 165 163 169 177 186 194 211 219 219 214 219 218 202 216 205 192 178 178 228 221 245 259 262 282 309 352 4 15 354 9 47 63 29 17 10 348 5 17 28 16 37 92 95 104 106 298 318 311 326 352 8 4
179 176 177 180 184 185 183 167 164 173 174 175 174 167 168 164 164 166 176 175 170 173 167 168 166 157 157 168 168 177 157 122 149 164 169 165 183 193 199 205 214 226 224 219 238 215 212 191 197 205 211 216 226 223 230 256 268 260 293 348 331 335 360 287 67 89 38 324 72 23 15 16 6 342 14 31 38 40 99 310 302 356 354 306 318
181 182 182 182 183 179 162 169 171 161 165 169 169 172 169 169 169 173 181 173 170 172 169 172 167 165 167 171 172 169 167 151 147 162 148 158 187 198 198 209 204 218 218 225 226 227 202 195 195 208 194 194 201 179 220 242 268 265 246 82 338 340 351 21 38 64 111 6 39 83 62 61 30 269 270 300 332 302 13 334 311 197 250 313 298
181 178 183 175 159 162 168 167 164 163 159 168 172 170 172 173 171 175 177 177 173 170 170 173 172 174 176 173 176 176 166 166 172 176 180 184 188 194 203 198 214 215 217 222 235 217 204 202 200 177 187 180 231 223 243 237 276 277 246 172 132 316 347 30 18 25 29 64 28 6 324 248 225 216 215 192 194 272 194 285 283 317 303 235 284
178 179 170 168 171 169 173 171 158 162 171 172 172 172 174 173 175 174 183 180 177 171 174 174 174 182 182 184 187 175 176 176 180 182 184 187 187 190 183 205 209 214 219 211 223 212 203 206 206 200 206 204 202 203 244 229 221 230 224 237 112 289 303 1 11 341 337 18 355 334 316 279 288 278 220 199 91 111 141 323 278 132 283 307 311
180 175 174 175 176 180 175 172 174 175 175 174 172 172 173 176 177 180 184 181 176 175 176 173 184 184 185 188 188 177 183 186 186 186 188 191 184 190 190 197 203 212 207 214 212 198 205 210 204 211 209 203 204 206 220 215 202 237 229 234 263 234 255 281 282 316 290 323 318 334 349 336 311 312 243 175 181 164 165 258 312 301 215 285 293
177 176 178 180 181 178 176 177 179 179 176 174 173 174 173 175 177 182 180 184 179 180 175 180 185 186 185 189 186 183 185 188 193 192 186 188 188 187 199 196 197 210 211 215 201 200 205 202 206 209 214 215 215 223 218 177 197 213 216 233 278 227 236 264 276 331 334 345 346 326 316 319 320 310 269 243 190 209 217 186 156 358 339 344 341
178 178 183 186 182 179 177 178 181 180 178 177 175 171 176 180 180 183 181 180 184 181 182 181 184 183 185 187 190 186 187 185 188 192 194 194 188 192 199 202 208 208 210 199 212 194 196 204 204 217 217 216 218 225 234 224 198 207 237 236 274 261 290 289 285 300 322 322 321 308 326 326 315 321 304 269 213 210 233 150 126 118 75 330 325
179 180 183 185 182 183 182 180 179 178 178 181 180 180 180 176 179 182 182 179 183 185 183 181 177 177 188 189 184 186 186 180 186 191 192 196 195 198 196 205 206 205 202 198 201 204 198 196 205 216 220 220 222 221 217 218 208 204 213 217 253 292 303 282 297 279 290 314 311 329 319 302 305 312 302 286 314 278 238 224 179 173 162 113 307
183 183 182 181 182 183 184 185 182 181 183 183 184 183 181 179 179 180 179 182 187 182 180 180 179 183 182 183 185 190 191 193 187 189 185 182 200 205 206 200 207 206 199 197 190 199 204 207 204 218 223 217 220 216 207 208 193 208 210 216 226 187 263 274 254 253 280 273 298 308 324 306 298 304 300 306 313 316 315 255 235 184 161 241 192
177 181 180 182 186 186 184 186 186 186 185 186 183 179 179 183 184 182 185 187 183 181 180 181 181 182 181 181 179 185 194 197 196 192 179 185 193 194 198 206 202 199 200 200 194 199 200 210 207 218 217 220 217 216 204 204 190 206 207 224 220 202 223 256 251 241 265 263 295 302 292 280 283 293 296 304 300 291 324 289 290 118 188 178 168
180 181 183 185 188 189 186 184 183 185 185 186 180 177 182 185 184 190 189 184 181 183 181 181 184 185 184 179 185 184 187 193 194 182 183 194 196 191 197 192 198 189 198 196 196 201 201 204 210 216 220 218 217 220 207 206 199 210 220 224 228 211 225 241 258 243 259 266 273 276 276 274 280 276 277 283 291 298 302 314 236 222 213 195 149
182 181 182 184 187 190 191 189 188 186 185 179 178 182 185 182 187 187 182 181 185 188 184 187 179 189 186 186 184 184 187 186 186 188 193 200 198 194 195 199 175 198 190 195 199 206 203 203 209 214 219 218 217 219 203 197 202 220 231 234 241 227 239 249 248 279 269 259 261 261 270 275 288 301 301 306 305 304 313 292 248 226 242 174 174
181 182 180 182 184 189 191 190 186 181 183 184 186 182 180 185 188 185 185 187 188 189 188 186 184 185 192 191 189 186 186 181 187 188 197 197 199 201 195 179 194 200 191 200 204 208 208 204 207 212 215 219 218 217 206 192 200 216 231 219 231 230 234 249 264 265 272 260 252 260 266 265 254 267 281 285 293 302 304 302 276 241 259 231 195
180 178 180 181 183 186 188 187 187 187 187 187 183 185 187 188 185 186 185 191 189 191 190 184 184 186 193 192 184 183 180 184 189 190 199 197 198 201 188 193 202 201 197 203 204 207 210 208 213 216 210 213 212 210 204 195 205 209 220 226 229 222 224 238 239 247 257 264 268 255 266 273 277 292 280 278 280 281 281 278 286 252 262 257 207
177 176 177 179 181 182 182 188 190 189 188 189 189 188 189 188 187 185 192 191 188 187 184 183 185 193 190 183 186 183 182 185 191 192 198 200 196 196 191 201 207 204 204 207 206 207 204 209 214 217 212 214 209 210 202 203 208 207 214 224 223 224 227 232 236 245 251 248 252 264 264 267 279 273 278 285 283 275 276 269 275 269 245 268 198
163 172 174 175 175 180 188 190 191 191 191 190 188 189 188 190 187 191 198 192 188 183 183 186 188 190 191 192 190 182 184 189 195 190 199 198 197 195 192 202 201 208 210 204 206 204 204 201 212 213 214 211 213 208 205 210 214 211 215 223 226 225 228 232 237 240 246 245 244 242 257 257 238 255 268 266 267 275 272 270 267 261 247 242 217
160 165 164 177 184 185 187 190 192 193 191 190 191 191 191 189 193 194 195 189 189 182 187 185 187 189 193 197 196 190 192 193 197 198 198 197 194 195 195 201 199 208 208 206 204 199 199 203 209 212 211 215 212 210 210 214 215 212 214 222 226 228 231 231 235 238 243 243 247 248 250 247 242 247 264 268 262 265 267 265 261 255 240 227 235
146 172 183 171 178 188 190 191 193 193 193 191 191 192 191 191 195 196 195 191 186 180 184 187 189 193 194 200 198 198 195 197 198 202 202 199 200 198 197 200 197 207 206 207 207 204 207 205 210 209 211 209 212 210 211 214 218 218 216 219 229 229 231 232 232 238 241 242 243 247 247 240 239 238 254 263 275 270 257 262 253 262 255 229 240
96 99 152 184 190 188 186 191 192 196 195 196 195 194 192 190 194 194 190 186 182 180 183 188 189 195 199 201 203 201 198 198 198 200 203 204 204 204 204 204 197 203 209 208 207 206 208 206 211 210 214 210 209 210 208 210 213 215 215 222 225 231 232 231 238 238 241 244 244 246 247 241 238 238 235 253 239 261 252 263 254 243 247 232 247
97 101 129 172 182 186 189 189 193 189 190 192 191 195 199 207 205 197 188 191 181 179 183 186 189 198 204 201 199 201 199 195 195 194 201 207 207 206 204 203 204 209 209 212 209 206 204 207 215 214 215 210 209 214 208 204 210 212 210 221 222 226 228 230 236 241 241 243 245 247 249 249 244 251 245 246 248 229 225 250 262 200 232 225 239
134 135 145 151 163 170 179 183 189 189 188 186 187 188 190 192 195 189 196 192 174 187 187 188 193 200 201 196 194 195 195 194 195 198 203 205 209 208 205 205 210 211 215 213 214 210 208 209 211 216 214 212 214 214 219 218 211 210 206 217 220 223 225 227 233 245 254 248 247 248 254 257 259 261 262 242 158 227 236 228 254 206 224 220 220
70 34 22 103 125 128 128 138 157 173 181 184 184 185 181 179 172 172 184 185 185 191 195 194 201 201 196 190 189 196 192 201 205 205 204 204 209 211 214 218 219 219 219 217 209 208 211 211 214 216 216 218 219 220 222 222 223 222 216 205 214 221 219 223 225 230 246 254 254 247 257 261 259 227 143 107 173 269 26 17 281 236 210 202 202
129 75 65 86 126 134 139 144 148 150 158 164 169 170 168 178 175 180 175 162 175 193 199 200 195 167 188 195 195 189 199 212 212 220 217 214 208 210 219 223 226 225 226 216 215 217 217 213 214 216 219 221 224 229 226 226 224 222 221 212 209 218 221 217 222 227 235 244 254 262 245 211 225 214 171 192 225 96 40 28 33 40 319 232 230
162 172 151 170 168 148 146 141 141 150 154 163 153 151 165 156 129 96 102 117 109 88 38 56 148 168 174 176 178 193 205 209 217 222 224 218 213 216 222 223 228 228 218 218 223 217 222 217 213 217 219 219 224 227 225 227 231 229 228 232 216 218 221 225 221 223 226 230 229 232 224 198 221 212 190 205 178 171 88 69 56 44 50 60 48
7 343 298 259 311 339 292 344 16 56 113 141 151 146 141 130 124 121 118 134 143 131 120 115 63 13 7 143 155 179 196 206 203 204 205 213 213 221 222 221 228 231 226 232 230 224 224 218 215 216 222 221 221 135 141 168 240 271 264 254 248 225 226 227 226 223 228 225 215 211 201 213 208 220 211 213 187 158 161 110 78 64 80 72 73
23 17 7 358 342 306 301 278 199 73 30 46 78 104 117 121 130 128 132 132 133 130 138 145 134 111 50 342 322 203 195 196 193 193 196 208 217 223 221 216 215 219 220 223 224 233 238 241 244 232 226 210 87 80 100 135 190 216 217 226 241 248 240 237 234 227 226 226 212 210 205 204 189 198 194 203 184 174 149 145 122 116 95 74 54
18 30 34 21 14 64 118 105 67 129 153 168 145 131 120 118 115 124 134 133 120 88 31 355 27 185 191 144 321 314 303 243 181 149 92 328 291 251 231 236 223 206 185 165 125 156 184 157 43 256 199 131 57 44 51 42 7 337 251 228 220 240 249 249 247 237 234 232 222 206 200 196 193 185 135 6 323 235 154 161 150 139 136 114 76
37 35 33 16 22 20 18 70 99 111 134 141 148 131 126 127 123 130 129 121 118 121 134 180 209 230 197 164 155 136 315 328 79 112 122 119 89 354 327 300 162 173 172 165 132 112 123 125 117 105 118 108 95 38 49 39 25 15 347 250 247 243 251 250 247 254 245 239 195 194 197 171 117 126 74 35 328 266 181 175 170 153 153 142 80
34 37 34 29 23 19 17 13 110 104 98 110 118 129 133 131 134 140 129 123 124 154 201 195 190 189 201 152 138 142 182 227 272 191 181 160 155 136 121 355 316 204 159 141 130 109 72 77 104 108 127 127 97 45 34 30 35 28 6 314 279 259 254 268 255 234 226 165 187 151 112 92 106 67 27 359 326 269 205 184 178 157 160 154 106
35 30 33 31 36 42 35 25 28 45 24 54 69 68 71 90 112 116 113 123 127 157 184 210 214 152 234 168 152 149 139 141 221 233 197 181 144 116 123 103 83 305 291 143 123 110 96 84 95 105 100 91 82 48 30 23 29 33 37 24 7 313 270 246 231 201 89 110 76 78 70 66 72 58 36 21 6 348 212 125 153 147 164 142 86
31 36 38 45 40 45 39 30 26 27 34 63 81 78 75 74 48 75 87 103 127 136 163 196 175 204 219 172 140 130 124 134 190 205 127 67 64 71 92 133 161 199 277 295 119 120 117 106 86 76 72 83 86 64 43 45 37 30 22 39 38 28 339 271 223 189 158 151 110 96 79 76 79 65 48 33 24 8 5 173 182 176 151 145 151
35 34 32 41 42 48 44 29 20 19 22 42 66 77 74 74 76 64 51 22 50 120 143 138 135 154 131 108 91 94 130 171 216 190 131 136 166 163 161 172 150 145 160 256 54 55 67 67 68 63 64 64 79 80 57 59 55 49 40 40 60 54 36 5 344 36 4 66 55 58 59 63 75 76 62 45 31 17 355 337 59 85 45 93 124
36 44 40 37 42 44 43 37 24 31 44 61 72 80 82 77 67 50 29 6 11 28 54 64 65 53 46 41 49 74 102 165 232 212 167 153 154 157 143 136 116 105 106 113 89 94 95 85 63 59 57 58 69 80 82 64 65 61 56 52 54 28 360 266 217 266 14 31 57 65 83 64 61 74 72 46 37 23 360 321 27 93 100 153 163
31 34 37 50 52 49 49 45 40 37 30 39 67 67 60 60 66 59 56 68 60 53 54 57 57 53 47 46 38 50 74 123 148 165 67 99 128 157 153 126 113 112 106 81 84 102 95 87 79 65 61 54 45 60 66 68 62 62 58 55 50 46 36 37 19 30 26 12 357 46 79 64 32 19 13 26 18 13 27 4 338 158 142 159 100
40 40 32 43 59 52 47 37 34 37 33 30 51 70 69 62 48 28 39 40 44 51 57 59 59 61 64 62 67 68 65 62 58 70 80 73 70 147 143 118 112 108 109 100 69 70 83 88 85 73 57 42 36 54 58 62 65 65 64 63 60 52 48 44 39 28 18 9 343 348 26 12 5 25 23 9 16 10 352 351 305 254 135 114 106
61 50 45 48 54 59 58 49 37 38 38 37 33 53 51 50 22 30 34 43 47 51 55 60 63 65 64 62 57 43 35 38 37 34 35 37 38 46 59 77 103 110 118 118 118 114 109 109 104 91 74 49 34 30 39 55 62 62 54 54 60 70 66 65 61 23 356 4 332 322 327 353 12 351 335 337 359 59 64 351 256 183 102 103 105
57 50 48 57 59 56 55 54 39 33 44 44 43 49 57 31 27 44 48 55 57 56 53 47 41 41 50 58 59 47 41 34 37 37 43 33 47 73 86 87 99 112 125 129 128 120 115 107 94 86 77 56 39 37 38 32 39 59 55 42 34 50 66 59 67 104 302 294 296 283 276 285 293 283 299 64 75 84 115 144 116 87 87 88 87
64 38 56 57 60 59 56 52 43 19 32 34 43 42 45 37 39 30 48 64 69 66 63 54 48 51 53 60 63 53 41 31 26 33 38 40 45 59 84 96 99 115 126 129 126 122 116 109 105 86 79 66 60 51 37 34 34 38 39 34 19 29 30 16 357 351 311 271 262 235 213 201 164 92 65 72 85 94 91 89 83 82 76 72 67
61 58 73 72 68 70 65 61 53 22 34 39 42 39 33 38 34 35 44 53 60 68 67 56 51 58 64 68 78 77 70 54 43 41 35 28 32 38 65 58 36 40 121 128 121 121 120 126 118 106 94 91 81 58 31 20 22 23 25 21 36 29 17 349 322 241 247 257 165 122 114 106 88 74 67 71 65 60 69 66 62 60 67 75 84
74 54 64 81 85 74 68 70 48 18 48 47 36 23 20 31 35 44 58 64 59 62 74 72 74 73 73 83 90 100 101 98 90 67 54 41 18 7 52 73 44 27 329 42 103 116 115 115 117 129 132 110 93 68 47 37 52 44 42 28 35 38 315 278 321 321 304 172 110 85 99 102 104 104 93 74 65 66 57 51 62 61 67 66 61
70 75 70 72 74 91 83 69 43 40 65 61 44 30 23 19 25 37 54 64 61 63 59 57 66 76 75 80 81 77 88 94 98 99 102 78 58 57 33 50 39 13 23 0 66 122 138 136 109 50 12 59 103 108 114 78 62 28 9 339 308 286 277 284 312 298 263 90 92 92 70 88 95 92 88 82 85 82 84 73 62 65 68 69 66
83 84 60 68 60 80 88 76 39 37 55 52 49 30 31 25 28 32 54 56 49 47 49 59 65 71 87 90 93 93 87 89 90 103 104 105 99 67 55 54 64 63 54 54 59 67 72 64 97 113 60 57 80 97 85 73 52 343 335 350 337 318 327 323 319 352 65 65 98 90 71 73 85 89 88 88 91 88 86 86 75 66 58 61 62